T Black Aviation
T Black Aviation Training School
T Black Aviation Cessna Pilot Center
Visit our pilot shop in person
OR
Click here to shop online now!

We Give All FAA, FCC, and NCATT Written Exams

Accelerated Aviation Academics®

Distance Learning A&P Course Now Available!

Aircraft Electronics Technician (AET) Logo

National Center for Aerospace & Transportation Technologies (NCATT)

One week course

T Black Aviation guarantees that if you fail any of the written tests, after completing our course, you may return to our school, up to ten years from the date of the initial course, for additional training (sit in on the current course) until you receive your designated rating.

CATS Testing Center at T Black Aviation

Current METAR for KPIE

KPIE 311853Z AUTO 26004KT 10SM FEW032 FEW040 OVC110 29/24 A3002 RMK AO2 LTG DSNT N AND NW RAB40E49 TSE01 SLP166 P0000 T02890239

Coming Soon to T Black Aviation